This is the latest recevied weather packets stored in our database for station/object JF2ZGN-13. If no packets are shown the sender has not sent any weather packets the latest 10 day(s).
| Time | Temp. | Humidity | Pressure | Rain* | Wind** | Luminosity | Snow |
|---|---|---|---|---|---|---|---|
| 1787371372 | 23.89° C | 80% | 911.8 hPa | 0 mm | - | - | - |
| 1787370771 | 23.89° C | 77% | 911.9 hPa | 0 mm | - | - | - |
| 1787370171 | 23.89° C | 79% | 911.8 hPa | 0 mm | - | - | - |
| 1787369570 | 23.33° C | 77% | 911.9 hPa | 0 mm | - | - | - |
| 1787368369 | 23.33° C | 78% | 911.9 hPa | 0 mm | - | - | - |
| 1787367769 | 23.33° C | 78% | 911.8 hPa | 0 mm | - | - | - |
| 1787367168 | 23.33° C | 78% | 911.9 hPa | 0 mm | - | - | - |
| 1787366567 | 22.78° C | 83% | 911.8 hPa | 0 mm | - | - | - |
| 1787365967 | 22.22° C | 83% | 911.9 hPa | 0 mm | - | - | - |
| 1787365366 | 22.22° C | 83% | 912 hPa | 0 mm | - | - | - |
| 1787364765 | 22.22° C | 84% | 912.1 hPa | 0 mm | - | - | - |
| 1787364165 | 22.22° C | 82% | 912.1 hPa | 0 mm | - | - | - |
| 1787363565 | 22.22° C | 84% | 912.1 hPa | 0 mm | - | - | - |
| 1787362965 | 22.22° C | 83% | 912.2 hPa | 0 mm | - | - | - |
| 1787362364 | 21.67° C | 85% | 912.2 hPa | 0 mm | - | - | - |
| 1787361763 | 21.67° C | 85% | 912.3 hPa | 0 mm | - | - | - |
| 1787361163 | 21.67° C | 85% | 912.4 hPa | 0 mm | - | - | - |
| 1787360562 | 21.67° C | 86% | 912.4 hPa | 0 mm | - | - | - |
| 1787359962 | 21.67° C | 87% | 912.3 hPa | 0 mm | - | - | - |
| 1787359362 | 21.67° C | 85% | 912 hPa | 0 mm | - | - | - |
| 1787358761 | 21.67° C | 86% | 912.2 hPa | 0 mm | - | - | - |
| 1787358161 | 21.67° C | 85% | 912 hPa | 0 mm | - | - | - |
| 1787357560 | 21.67° C | 86% | 912 hPa | 0 mm | - | - | - |
| 1787356959 | 21.11° C | 88% | 912 hPa | 0 mm | - | - | - |
* Rain since midnight (hover to see other rain measurements)
** Current wind speed in m/s (hover to see current wind gust speed)